Reflectivity
-20 -17 -20 -18 -11 -18 -20 -20 -20 -20 -20 -20 -20 -20 -20 -20 -20 -20 -20 -20 -20 -20
-20 -20 -1 -13 -20 -19 -9 21 -20 8 -20 -20 -20 -20 -20 -20 -13 15 -20 -20 -20 -20
2 26 4 -7 -14 -16 20 -10 10 7 -3 -20 -20 -20 -20 -1 4 -20 -18 -20 -20 -20
-20 25 24 2 -12 15 21 -17 -9 10 0 -20 -20 -20 -20 -15 -3 15 -16 -20 -20 -20
-20 -18 15 21 22 21 -20 7 17 -20 -20 -20 -20 -20 -20 3 26 15 5 8 -20 -20
-20 -20 -20 -20 23 21 7 26 -3 -7 9 -20 9 12 -17 18 32 1 21 2 -1 -20
-20 -20 -20 -20 -20 4 23 -6 26 26 6 21 9 23 16 34 13 6 21 22 -17 -20
-20 27 24 -7 -19 -20 -4 21 3 43 21 18 31 21 30 24 9 32 30 2 -20 -20
24 -20 23 26 -17 4 21 4 7 3 36 28 35 30 18 15 31 37 17 -4 -20 -20
25 26 -20 -19 18 12 -1 9 -2 26 23 34 34 17 25 24 33 33 18 20 2 -1
-20 4 12 -16 -19 -17 5 -7 3 19 41 31 26 11 32 37 31 28 18 12 9 -2
-20 -20 -20 -20 -20 -20 -20 7 20 34 34 27 8 36 33 31 23 24 19 11 -0 -6
-20 -20 -20 -20 -20 -20 -20 -14 18 26 15 33 35 36 37 30 23 20 11 1 -4 -17
16 -20 -20 -20 -20 -20 -20 10 18 20 28 34 36 32 30 27 22 14 7 0 -17 -20
Wind_Speed
17 12 12 15 13 11 11 10 9 8 9 10 10 8 7 5 5 6 5 6 4 3
16 17 14 16 15 12 11 9 10 10 10 9 9 9 8 6 6 6 5 5 4 3
16 16 14 15 18 18 15 16 13 11 11 10 9 8 8 6 4 7 4 4 5 3
16 15 14 15 16 16 16 17 17 15 12 11 9 8 7 7 6 7 6 5 5 6
14 13 15 15 15 16 17 17 17 17 14 12 10 8 9 9 7 8 6 6 6 6
15 16 16 15 15 14 16 15 17 18 16 13 11 10 8 7 8 6 6 6 6 6
17 17 16 15 15 15 16 15 12 13 14 14 15 8 11 9 9 6 5 6 6 5
15 13 12 14 15 16 14 15 17 10 13 14 11 9 8 9 9 6 5 5 5 4
13 15 15 13 13 14 15 14 17 15 12 11 8 14 13 12 7 5 5 5 4 4
15 15 15 16 16 15 16 17 15 13 14 13 11 15 13 14 5 5 3 5 4 4
15 15 15 17 17 16 15 16 15 13 11 10 10 15 14 9 7 5 4 5 4 5
18 18 18 19 19 17 17 15 14 14 13 12 11 14 10 8 6 6 5 4 4 5
19 20 20 19 18 16 17 16 13 13 11 15 11 12 12 8 5 6 3 3 4 7
18 19 19 19 16 16 16 15 15 14 12 13 13 11 13 11 5 5 4 3 2 1
Wind_Direction
182 179 177 172 166 167 168 161 166 152 153 150 146 144 137 130 133 134 133 142 147 152
175 175 178 172 165 160 156 156 159 157 152 151 146 143 138 137 134 130 135 141 139 138
178 179 174 166 173 170 162 158 159 155 154 151 147 140 129 118 125 121 133 129 130 114
179 178 175 176 173 174 167 158 158 158 153 148 139 136 125 114 136 128 121 118 110 89
165 167 170 179 179 176 171 166 160 152 148 144 140 136 126 130 138 126 117 115 107 95
166 170 172 176 176 174 168 168 164 152 144 139 134 128 114 109 117 111 118 119 109 107
172 173 172 168 166 169 168 149 150 137 128 129 122 121 113 138 114 112 114 106 115 115
167 167 163 158 156 150 148 139 121 114 118 118 119 117 138 118 100 115 118 119 122 119
158 154 157 151 141 135 133 131 128 127 126 116 104 127 116 101 112 164 147 135 128 121
166 160 152 143 139 137 132 127 122 123 118 124 125 120 120 113 157 133 160 135 141 120
157 157 152 148 141 136 131 129 127 121 116 124 113 115 111 159 126 147 138 130 144 122
161 154 153 149 144 136 132 133 133 133 142 128 123 115 168 148 129 139 132 129 119 112
159 158 155 149 143 143 139 134 129 125 134 124 121 165 171 139 147 135 145 129 103 92
158 157 148 140 142 143 136 130 138 134 134 132 149 174 159 154 157 155 158 151 155 99